Home > Weather > Wermelskirchen > Past weeks

Flag for Germany Past Weather in Wermelskirchen, North Rhine-Westphalia, Germany — Yesterday and Last 2 Weeks

Now
68 °F

Light rain. Partly sunny.


Feels Like: 68 °F
Forecast: 58 / 69 °F
Wind: 1 mph from East

Location: Koeln / Bonn

Current Time: May 28, 2016 at 8:23:08 PM

Latest Report: May 28, 2016 at 7:50 PM


Visibility: N/A

Pressure: 29.83 "Hg

Humidity: 78%

Dew Point: 61 °F

Location of WermelskirchenLocation

Past Weather in Wermelskirchen — Graph

°F

Wermelskirchen Temperature Yesterday

Maximum temperature yesterday: 73 °F (at 12:20 PM)
Minimum temperature yesterday: 57 °F (at 2:20 AM)
Average temperature yesterday: 65 °F

High & Low Weather Summary for the Past Weeks

 TemperatureHumidityPressure
High77 °F (May 28, 4:20 PM)100% (May 23, 3:50 PM)30.12 "Hg (May 23, 3:50 PM)
Low43 °F (May 15, 4:20 AM)29% (May 13, 7:20 PM)29.62 "Hg (May 13, 7:20 PM)
Average57 °F71%29.95 "Hg
* Reported May 13 7:20 PM — May 28 7:20 PM, Wermelskirchen, Weather by CustomWeather, © 2016

Note: Actual official high and low records may vary slightly from our data, if they occured in-between our weather recording intervals... More about our weather records

Advertising

Wermelskirchen Weather History for the Previous 24 Hours

Scroll right to see more
 ConditionsComfort  
Time TempWeatherWind HumidityBarometerVisibility
7:20 PM
Sat, May 28
70 °FPartly sunny.2 mph69%29.83 "HgN/A
6:50 PM72 °FPartly sunny.2 mph65%29.83 "HgN/A
6:20 PM73 °FPartly sunny.2 mph57%29.83 "HgN/A
5:50 PM75 °FBroken clouds.2 mph54%29.83 "HgN/A
5:20 PM75 °FBroken clouds.3 mph50%29.83 "HgN/A
4:50 PM75 °FPartly sunny.2 mph50%29.86 "HgN/A
4:20 PM77 °FPartly sunny.5 mph47%29.86 "HgN/A
3:50 PM75 °FPartly sunny.3 mph44%29.86 "HgN/A
3:20 PM75 °FPartly sunny.2 mph50%29.86 "HgN/A
2:50 PM75 °FScattered clouds.2 mph54%29.89 "HgN/A
2:20 PM75 °FPartly sunny.3 mph61%29.89 "HgN/A
1:50 PM70 °FPartly sunny.2 mph69%29.89 "HgN/A
1:20 PM70 °FPartly sunny.2 mph73%29.92 "HgN/A
12:50 PM66 °FPassing clouds.2 mph83%29.92 "HgN/A
12:20 PM64 °FPartly sunny.3 mph83%29.92 "HgN/A
11:50 AM63 °FPartly sunny.1 mph88%29.92 "HgN/A
11:20 AM63 °FPartly sunny.2 mph88%29.92 "HgN/A
10:50 AM61 °FMostly cloudy.2 mph88%29.95 "HgN/A
10:20 AM61 °FMostly cloudy.2 mph88%29.95 "Hg6 mi
9:50 AM59 °FMostly cloudy.3 mph94%29.95 "Hg4 mi
9:20 AM59 °FFog.5 mph94%29.95 "Hg3 mi
8:50 AM59 °FFog.3 mph94%29.95 "Hg3 mi
8:20 AM59 °FFog.3 mph94%29.95 "Hg3 mi
7:50 AM59 °FFog.3 mph94%29.95 "Hg2 mi
7:20 AM59 °FFog.2 mph94%29.95 "Hg2 mi
6:50 AM57 °FFog.3 mph100%29.95 "Hg2 mi
6:20 AM57 °FFog.5 mph100%29.95 "Hg1 mi
5:50 AM59 °FFog.2 mph94%29.95 "Hg1 mi
5:20 AM59 °FFog.2 mph100%29.95 "Hg1 mi
4:50 AM59 °FFog.3 mph94%29.95 "Hg1 mi
4:20 AM59 °FCool.3 mph94%29.95 "Hg1 mi
3:50 AM59 °FCool.2 mph94%29.95 "Hg1 mi
3:20 AM57 °FCool.3 mph100%29.95 "Hg1 mi
2:50 AM57 °FFog.1 mph100%29.95 "HgN/A
2:20 AM59 °FFog.2 mph94%29.95 "HgN/A
1:50 AM59 °FFog.2 mph94%29.95 "HgN/A
1:20 AM59 °FFog.5 mph100%29.95 "HgN/A
12:50 AM59 °FFog.3 mph100%29.95 "HgN/A
12:20 AM61 °FFog.2 mph94%29.95 "HgN/A
11:50 PM
Fri, May 27
61 °FLight rain. Partly cloudy.1 mph100%29.98 "HgN/A
11:20 PM61 °FLight rain. Partly cloudy.2 mph94%29.98 "HgN/A
10:50 PM61 °FLight rain. Partly cloudy.2 mph94%29.98 "HgN/A
10:20 PM63 °FLight rain. Broken clouds.2 mph94%29.98 "HgN/A
9:50 PM63 °FLight rain. Broken clouds.2 mph88%29.98 "HgN/A
9:20 PM64 °FBroken clouds.5 mph83%29.98 "HgN/A
8:50 PM64 °FThunderstorms. Broken clouds.8 mph78%29.95 "HgN/A
8:20 PM68 °FThunderstorms. Broken clouds.5 mph73%29.95 "HgN/A
Weather by CustomWeather, © 2016

See weather overviewHow to use our weather pages